Location: Indian Tree Observatory
(39.4030°N, 104.5929°W)
Time: 10:38:33
(UTC-06:00)

ISS - Visible Passes

Search period start: 15 October 2019 00:00
Search period end: 25 October 2019 00:00
Orbit: 411 x 421 km, 51.6° (Epoch: 15 October)

Date Brightness Start Highest point End Pass type
(mag) Time Alt. Az. Time Alt. Az. Time Alt. Az.
22 Oct -1.1 06:32:47 10° S 06:35:24 21° SE 06:38:02 10° E visible
23 Oct -0.6 05:45:40 10° SSE 05:47:01 12° SE 05:48:23 10° ESE visible
24 Oct -3.4 06:31:27 10° SW 06:34:47 65° SE 06:38:07 10° ENE visible
